TimePST,TemperatureF,Dew PointF,Humidity,Sea Level PressureIn,VisibilityMPH,Wind Direction,Wind SpeedMPH,Gust SpeedMPH,PrecipitationIn,Events,Conditions,WindDirDegrees,DateUTC
12:04 AM,57.2,51.8,82,29.98,10.0,Calm,Calm,-,N/A,,Overcast,0,2013-11-20 08:04:00
12:53 AM,57.0,52.0,83,29.97,10.0,Calm,Calm,-,N/A,,Overcast,0,2013-11-20 08:53:00
1:53 AM,57.9,52.0,81,29.98,10.0,Calm,Calm,-,N/A,,Overcast,0,2013-11-20 09:53:00
2:53 AM,57.9,52.0,81,29.96,10.0,Calm,Calm,-,N/A,,Overcast,0,2013-11-20 10:53:00
3:05 AM,57.2,51.8,82,29.97,10.0,SSE,3.5,-,N/A,,Overcast,160,2013-11-20 11:05:00
3:53 AM,57.0,52.0,83,29.95,10.0,Calm,Calm,-,N/A,,Mostly Cloudy,0,2013-11-20 11:53:00
4:26 AM,57.2,51.8,82,29.95,10.0,SE,3.5,-,N/A,,Mostly Cloudy,140,2013-11-20 12:26:00
4:53 AM,57.0,52.0,83,29.96,10.0,SSE,3.5,-,N/A,,Overcast,150,2013-11-20 12:53:00
5:41 AM,55.4,51.8,88,29.95,10.0,SE,4.6,-,N/A,,Overcast,140,2013-11-20 13:41:00
5:53 AM,55.9,52.0,87,29.96,10.0,SSE,3.5,-,N/A,,Overcast,150,2013-11-20 13:53:00
6:53 AM,57.9,53.1,84,29.96,10.0,SE,4.6,-,N/A,,Overcast,140,2013-11-20 14:53:00
7:53 AM,60.1,54.0,80,29.97,10.0,SE,3.5,-,N/A,,Overcast,140,2013-11-20 15:53:00
8:43 AM,60.8,53.6,77,29.99,10.0,Variable,3.5,-,N/A,,Mostly Cloudy,0,2013-11-20 16:43:00
8:53 AM,61.0,53.1,75,29.99,10.0,SSW,3.5,-,N/A,,Overcast,210,2013-11-20 16:53:00
9:53 AM,63.0,52.0,67,29.99,10.0,Calm,Calm,-,N/A,,Overcast,0,2013-11-20 17:53:00
10:50 AM,62.6,51.8,68,29.97,10.0,WNW,4.6,-,N/A,,Scattered Clouds,290,2013-11-20 18:50:00
10:53 AM,63.0,52.0,67,29.96,10.0,West,6.9,-,N/A,,Mostly Cloudy,270,2013-11-20 18:53:00
11:04 AM,62.6,51.8,68,29.96,10.0,West,4.6,-,N/A,,Scattered Clouds,260,2013-11-20 19:04:00
11:53 AM,64.0,52.0,65,29.94,10.0,West,6.9,-,N/A,,Partly Cloudy,260,2013-11-20 19:53:00
12:29 PM,66.2,51.8,60,29.93,10.0,West,8.1,16.1,N/A,,Mostly Cloudy,270,2013-11-20 20:29:00
12:53 PM,64.9,54.0,68,29.91,10.0,West,12.7,-,N/A,,Partly Cloudy,270,2013-11-20 20:53:00
1:53 PM,64.9,54.0,68,29.91,10.0,West,10.4,-,N/A,,Mostly Cloudy,260,2013-11-20 21:53:00
2:53 PM,64.0,54.0,70,29.91,10.0,West,6.9,-,N/A,,Scattered Clouds,270,2013-11-20 22:53:00
3:53 PM,63.0,54.0,72,29.92,10.0,West,8.1,-,N/A,,Partly Cloudy,280,2013-11-20 23:53:00
4:53 PM,59.0,54.0,83,29.93,10.0,West,4.6,-,N/A,,Clear,280,2013-11-21 00:53:00
5:53 PM,57.9,55.0,90,29.94,10.0,Calm,Calm,-,N/A,,Mostly Cloudy,0,2013-11-21 01:53:00
6:53 PM,57.9,55.9,93,29.94,10.0,Calm,Calm,-,N/A,,Partly Cloudy,0,2013-11-21 02:53:00
7:53 PM,57.0,55.0,93,29.93,10.0,SE,4.6,-,N/A,,Overcast,130,2013-11-21 03:53:00
8:53 PM,59.0,55.9,90,29.94,10.0,South,3.5,-,N/A,,Overcast,180,2013-11-21 04:53:00
9:53 PM,59.0,55.0,87,29.93,10.0,SSW,4.6,-,N/A,,Overcast,210,2013-11-21 05:53:00
10:53 PM,59.0,55.9,90,29.93,10.0,South,4.6,-,0.00,,Overcast,180,2013-11-21 06:53:00
11:11 PM,59.0,55.4,88,29.93,10.0,South,4.6,-,N/A,,Overcast,170,2013-11-21 07:11:00
11:31 PM,59.0,55.4,88,29.92,10.0,SE,6.9,-,N/A,,Overcast,140,2013-11-21 07:31:00
11:51 PM,57.2,55.4,94,29.92,5.0,SE,8.1,-,0.00,Rain,Light Rain,130,2013-11-21 07:51:00
11:53 PM,57.9,55.9,93,29.91,5.0,SE,8.1,-,0.00,Rain,Light Rain,130,2013-11-21 07:53:00